Tracking 19476 objects as of 17-Jan-2019
HD Live streaming from Space Station
objects crossing your sky now

COSMOS 1020

Track COSMOS 1020 now!
10-day predictions
COSMOS 1020 is classified as:


NORAD ID: 10937
Int'l Code: 1978-056H
Perigee: 1,413.9 km
Apogee: 1,491.8 km
Inclination: 74.0 °
Period: 114.8 minutes
Semi major axis: 7823 km
RCS: 0.679 m2 (medium)
Launch date: June 7, 1978
Source: Commonwealth of Independent States (former USSR) (CIS)
Launch site: PLESETSK MISSILE AND SPACE COMPLEX (PKMTR)
aabbcc
Your satellite tracking list
Your tracking list is empty




NASA's NSSDC Master Catalog

Two Line Element Set (TLE):
1 10937U 78056H   19016.81786529 -.00000014 +00000-0 +12430-4 0  9999
2 10937 074.0260 156.4596 0049758 315.1870 044.5170 12.54511440859768
Source of the keplerian elements: AFSPC